Погода в Туголукове

Россия / Тамбовская область     51°56′13″N   41°39′37″E
темп.,
°C
ветер,
м/с
пор.,
м/с
влажн.,
%
обл.,
%
осадки,
мм/ч
давл.,
гПа
погр.,
м
21 апреля, ср
ср2100:00+10ю7128843 4.1 1004505
03:00+8ююв5149176 4.1 1005414
06:00+9ю81490100 0.3 1006681
09:00+10ю71288100 0.5 1007968
12:00+9ю91388100 1.1 1008969
15:00+6зюз71292100 1.3 1012641
18:00+9юз5983100 0.1 1014628
21:00+7ююз499280 0.1 1017318
22 апреля, чт
чт2200:00+6ю49958 0.1 1017178
03:00+5ююз37935 0.1 1018119
06:00+5юз38926 0.0 1020214
09:00+10юз467551 0.0 1021612
12:00+13зюз575524 0.4 10211769
15:00+15зюз464591 0.5 10212133
18:00+12ю3464100 0.0 102182
21:00+11ююв2365100 0.0 102236
23 апреля, пт
пт2300:00+10ю3475100 0.0 102286
03:00+10ю3573100 0.0 102295
06:00+9ююв357691 0.0 1022108
09:00+13ююв356486 0.0 1022358
12:00+16ююв554746 0.5 10212026
15:00+16ю355062 0.5 10201324
18:00+14юв466592 0.6 1018182
21:00+9ююв4118499 2.1 1018250
24 апреля, сб
сб2400:00+9ююв5128914 0.6 1017308
03:00+7ююв49935 0.8 1015197
06:00+7юв499216 0.3 1014221
09:00+12ю6977100 0.8 1012550
12:00+14ююз81156100 0.9 10101716
15:00+6з61088100 2.6 1012705
18:00+8з59727 0.1 10121111
21:00+5зюз36780 0.4 1013110
25 апреля, вс
вс2500:00+4зюз39810 0.0 1014192
03:00+3юз37845 0.0 1014152
06:00+3юз3885100 0.0 1015311
09:00+4юз5687100 1.1 1015609
12:00+7зюз576767 1.3 10151148
15:00+10зюз684399 1.9 10142409
18:00+9зюз57584 0.4 1015671
21:00+5юз38765 0.4 1016154